CW0104 Weather Reports


Display with metric or nautical units.
time (UTC)temp
F
wind
direction
speed
MPH
gust
MPH
rain 1hr
in
rain 24hr
in
rain mn
in
humidity
%
barometer
mb
20211019083717 44 356 0.0 0.0 0.00 0.00 0.00 75 1010.3
20211019083217 44 356 0.0 0.0 0.00 0.00 0.00 75 1010.3
20211019082646 44 356 0.0 0.0 0.00 0.00 0.00 75 1010.3
20211019082128 44 356 0.0 0.0 0.00 0.00 0.00 75 1010.3
20211019081622 44 356 0.0 0.0 0.00 0.00 0.00 75 1010.2
20211019081102 44 356 0.0 5.0 0.00 0.00 0.00 75 1010.2
20211019080601 44 356 0.0 5.0 0.00 0.00 0.00 74 1010.2
20211019080041 45 348 0.0 3.0 0.00 0.00 0.00 74 1010.2
20211019075522 45 348 0.0 3.0 0.00 0.00 0.00 74 1010.2
20211019075021 45 341 0.0 1.0 0.00 0.00 0.00 74 1010.2
20211019074512 45 341 0.0 1.0 0.00 0.00 0.00 74 1010.2
20211019073955 45 341 0.0 0.0 0.00 0.00 0.00 74 1010.2
20211019073450 45 341 0.0 0.0 0.00 0.00 0.00 74 1010.2
20211019072915 45 341 0.0 0.0 0.00 0.00 0.00 74 1010.2
20211019072403 45 341 0.0 0.0 0.00 0.00 0.00 74 1010.2
20211019071852 45 341 0.0 0.0 0.00 0.00 0.00 74 1010.2
20211019071338 45 341 0.0 0.0 0.00 0.00 0.00 74 1010.2
20211019070836 45 341 0.0 0.0 0.00 0.00 0.00 74 1010.2
20211019070301 45 341 0.0 0.0 0.00 0.00 0.00 74 1010.2
20211019065722 45 341 0.0 0.0 0.00 0.00 0.00 74 1010.2
20211019065202 45 341 0.0 1.0 0.00 0.00 0.00 74 1010.2
20211019064701 45 341 0.0 4.0 0.00 0.00 0.00 74 1010.2
20211019064151 45 341 0.0 8.0 0.00 0.00 0.00 74 1010.0
20211019063633 46 340 0.0 8.0 0.00 0.00 0.00 74 1010.0
20211019063123 46 346 0.0 5.0 0.00 0.00 0.00 74 1010.0
20211019062611 46 346 0.0 5.0 0.00 0.00 0.00 74 1010.2
20211019062105 46 346 0.0 5.0 0.00 0.00 0.00 74 1010.2
20211019061606 46 346 0.0 5.0 0.00 0.00 0.00 74 1010.3
20211019061103 46 345 0.0 0.0 0.00 0.00 0.00 74 1010.3
20211019060548 46 345 0.0 1.0 0.00 0.00 0.00 74 1010.3
20211019060043 46 345 0.0 5.0 0.00 0.00 0.00 74 1010.3
20211019055502 46 345 0.0 5.0 0.00 0.00 0.00 74 1010.3
20211019054959 46 3 0.0 1.0 0.00 0.00 0.00 74 1010.3
20211019054445 46 3 0.0 5.0 0.00 0.00 0.00 74 1010.3
20211019053939 46 3 0.0 6.0 0.00 0.00 0.00 74 1010.3
20211019053435 46 348 1.0 9.0 0.00 0.00 0.00 74 1010.3
20211019052928 46 333 0.0 9.0 0.00 0.00 0.00 73 1010.3
20211019052425 46 328 0.0 6.0 0.00 0.00 0.00 73 1010.3
20211019051918 46 328 1.0 6.0 0.00 0.00 0.00 73 1010.3
20211019051417 46 338 1.0 6.0 0.00 0.00 0.00 73 1010.3
20211019050853 46 349 1.0 5.0 0.00 0.00 0.00 73 1010.3
20211019050350 47 355 0.0 4.0 0.00 0.00 0.00 73 1010.3
20211019045831 47 355 0.0 3.0 0.00 0.00 0.00 73 1010.3
20211019045326 47 355 0.0 8.0 0.00 0.00 0.00 73 1010.3
20211019044819 47 352 0.0 8.0 0.00 0.00 0.00 73 1010.3
20211019044316 47 346 0.0 4.0 0.00 0.00 0.00 73 1010.2
20211019043814 47 349 1.0 6.0 0.00 0.00 0.00 73 1010.2
20211019043315 47 341 1.0 6.0 0.00 0.00 0.00 73 1010.2
20211019042755 47 355 0.0 6.0 0.00 0.00 0.00 73 1010.2
20211019042243 47 339 0.0 3.0 0.00 0.00 0.00 72 1010.2
20211019041744 47 3 0.0 8.0 0.00 0.00 0.00 72 1010.2
20211019041230 47 354 0.0 8.0 0.00 0.00 0.00 72 1010.0
20211019040732 47 321 1.0 11.0 0.00 0.00 0.00 72 1010.0
20211019040227 47 342 1.0 11.0 0.00 0.00 0.00 72 1010.0
20211019035723 47 344 0.0 6.0 0.00 0.00 0.00 72 1010.0
20211019035224 47 348 0.0 6.0 0.00 0.00 0.00 72 1010.0
20211019034717 47 346 1.0 6.0 0.00 0.00 0.00 72 1010.0
20211019034217 47 325 1.0 11.0 0.00 0.00 0.00 72 1010.0
20211019033712 48 341 0.0 11.0 0.00 0.00 0.00 71 1010.1
20211019033212 48 354 0.0 9.0 0.00 0.00 0.00 71 1010.1
20211019032712 48 318 1.0 9.0 0.00 0.00 0.00 71 1010.0
20211019032157 48 341 0.0 5.0 0.00 0.00 0.00 71 1010.0
20211019031653 48 340 0.0 5.0 0.00 0.00 0.00 70 1010.0
20211019031153 48 338 1.0 8.0 0.00 0.00 0.00 70 1010.0
20211019030654 48 332 0.0 8.0 0.00 0.00 0.00 70 1010.0
20211019030129 48 332 0.0 4.0 0.00 0.00 0.00 69 1010.0
20211019025623 48 344 0.0 5.0 0.00 0.00 0.00 69 1010.0
20211019025121 49 344 0.0 5.0 0.00 0.00 0.00 69 1010.0
20211019024550 49 355 0.0 3.0 0.00 0.00 0.00 69 1009.8
20211019024021 49 355 0.0 3.0 0.00 0.00 0.00 68 1009.8
20211019023508 49 355 0.0 5.0 0.00 0.00 0.00 68 1009.8
20211019022950 49 355 1.0 8.0 0.00 0.00 0.00 68 1009.7
20211019022423 49 350 1.0 8.0 0.00 0.00 0.00 68 1009.7
20211019021920 49 337 0.0 4.0 0.00 0.00 0.00 68 1009.7
20211019021405 49 315 0.0 5.0 0.00 0.00 0.00 67 1009.6
20211019020904 49 8 1.0 10.0 0.00 0.00 0.00 67 1009.6
20211019020347 49 358 1.0 10.0 0.00 0.00 0.00 67 1009.6
20211019015841 50 3 0.0 5.0 0.00 0.00 0.00 66 1009.5
20211019015309 50 3 0.0 5.0 0.00 0.00 0.00 66 1009.5
20211019014809 50 339 0.0 4.0 0.00 0.00 0.00 65 1009.5
20211019014301 50 337 0.0 5.0 0.00 0.00 0.00 65 1009.4
20211019013803 50 346 0.0 5.0 0.00 0.00 0.00 65 1009.4
20211019013225 50 331 0.0 5.0 0.00 0.00 0.00 64 1009.4
20211019012722 50 336 1.0 5.0 0.00 0.00 0.00 64 1009.4
20211019012225 50 354 0.0 6.0 0.00 0.00 0.00 64 1009.4
20211019011721 51 354 0.0 6.0 0.00 0.00 0.00 63 1009.4
20211019011223 51 337 0.0 1.0 0.00 0.00 0.00 63 1009.3
20211019010712 51 337 0.0 5.0 0.00 0.00 0.00 62 1009.3
20211019010210 51 337 1.0 9.0 0.00 0.00 0.00 62 1009.3
20211019005709 51 356 1.0 9.0 0.00 0.00 0.00 62 1009.3
20211019005144 51 346 0.0 6.0 0.00 0.00 0.00 61 1009.3
20211019004643 51 8 1.0 6.0 0.00 0.00 0.00 61 1009.3
20211019004131 51 333 1.0 6.0 0.00 0.00 0.00 61 1009.0
20211019003632 51 353 0.0 4.0 0.00 0.00 0.00 60 1009.0
20211019003125 51 354 0.0 1.0 0.00 0.00 0.00 60 1009.0
20211019002618 51 354 0.0 3.0 0.00 0.00 0.00 60 1008.8
20211019002111 52 352 0.0 4.0 0.00 0.00 0.00 59 1008.8
20211019001609 52 352 0.0 1.0 0.00 0.00 0.00 59 1008.7
20211019001109 52 352 0.0 3.0 0.00 0.00 0.00 59 1008.7
20211019000605 52 352 0.0 3.0 0.00 0.00 0.00 59 1008.7
20211019000103 52 352 0.0 9.0 0.00 0.00 0.00 58 1008.5
20211018235552 52 352 1.0 9.0 0.00 0.00 0.00 58 1008.5
20211018235025 52 342 0.0 5.0 0.00 0.00 0.00 58 1008.5
20211018234520 52 342 0.0 5.0 0.00 0.00 0.00 57 1008.3
20211018233958 52 345 0.0 5.0 0.00 0.00 0.00 57 1008.3
20211018233456 53 346 1.0 5.0 0.00 0.00 0.00 57 1008.3
20211018232936 53 331 0.0 5.0 0.00 0.00 0.00 57 1008.2
20211018232424 53 339 0.0 6.0 0.00 0.00 0.00 56 1008.2
20211018231925 53 339 1.0 6.0 0.00 0.00 0.00 56 1008.2
20211018231415 53 319 0.0 5.0 0.00 0.00 0.00 56 1008.1
20211018230913 53 331 1.0 8.0 0.00 0.00 0.00 56 1008.1
20211018230405 54 331 1.0 8.0 0.00 0.00 0.00 56 1008.1
20211018225908 54 310 3.0 9.0 0.00 0.00 0.00 55 1007.8
20211018225403 54 319 3.0 9.0 0.00 0.00 0.00 55 1007.8
20211018224902 54 335 1.0 6.0 0.00 0.00 0.00 55 1007.8
20211018224359 54 308 1.0 10.0 0.00 0.00 0.00 57 1007.7
20211018223856 54 290 1.0 10.0 0.00 0.00 0.00 57 1007.7
20211018223354 55 330 1.0 5.0 0.00 0.00 0.00 57 1007.7
20211018222831 55 336 1.0 6.0 0.00 0.00 0.00 56 1007.3
20211018222310 55 351 1.0 6.0 0.00 0.00 0.00 56 1007.3
20211018221807 55 333 0.0 8.0 0.00 0.00 0.00 55 1007.3
20211018221306 55 347 0.0 8.0 0.00 0.00 0.00 55 1007.2
20211018220807 55 335 1.0 9.0 0.00 0.00 0.00 55 1007.2
20211018220253 55 331 3.0 13.0 0.00 0.00 0.00 54 1007.2
20211018215754 55 285 3.0 13.0 0.00 0.00 0.00 53 1007.0
20211018215242 55 337 3.0 14.0 0.00 0.00 0.00 53 1007.0
20211018214738 55 336 3.0 14.0 0.00 0.00 0.00 53 1007.0
20211018214233 55 340 1.0 10.0 0.00 0.00 0.00 54 1006.8
20211018213726 55 337 1.0 9.0 0.00 0.00 0.00 53 1006.8
20211018213222 55 349 0.0 9.0 0.00 0.00 0.00 54 1006.8
20211018212717 56 340 1.0 9.0 0.00 0.00 0.00 53 1006.5
20211018212211 56 340 1.0 9.0 0.00 0.00 0.00 51 1006.5
20211018211658 56 341 0.0 8.0 0.00 0.00 0.00 51 1006.5
20211018211157 56 338 1.0 6.0 0.00 0.00 0.00 52 1006.3
20211018210652 56 335 1.0 11.0 0.00 0.00 0.00 50 1006.3
20211018210146 56 343 1.0 11.0 0.00 0.00 0.00 49 1006.3
20211018205638 56 358 1.0 6.0 0.00 0.00 0.00 50 1006.2
20211018205134 56 338 1.0 8.0 0.00 0.00 0.00 49 1006.2
20211018204628 57 13 3.0 10.0 0.00 0.00 0.00 47 1006.1
20211018204127 57 337 3.0 10.0 0.00 0.00 0.00 46 1006.1
20211018203628 57 308 3.0 14.0 0.00 0.00 0.00 47 1006.1
20211018203123 57 314 4.0 14.0 0.00 0.00 0.00 47 1006.1
20211018202625 57 320 1.0 11.0 0.00 0.00 0.00 46 1005.8
20211018202123 57 328 3.0 15.0 0.00 0.00 0.00 48 1005.8
20211018201618 57 17 3.0 15.0 0.00 0.00 0.00 47 1005.7
20211018201115 57 314 1.0 14.0 0.00 0.00 0.00 48 1005.7
20211018200616 57 359 1.0 10.0 0.00 0.00 0.00 47 1005.7
20211018200116 57 335 0.0 5.0 0.00 0.00 0.00 48 1005.7
20211018195607 57 348 1.0 8.0 0.00 0.00 0.00 50 1005.7
20211018195053 57 314 1.0 9.0 0.00 0.00 0.00 49 1005.7
20211018194554 57 346 3.0 9.0 0.00 0.00 0.00 49 1005.6
20211018194050 57 333 1.0 9.0 0.00 0.00 0.00 50 1005.6
20211018193521 57 325 0.0 9.0 0.00 0.00 0.00 49 1005.6
20211018193023 57 323 0.0 8.0 0.00 0.00 0.00 49 1005.6
20211018192525 57 323 3.0 15.0 0.00 0.00 0.00 48 1005.6
20211018192021 58 351 4.0 15.0 0.00 0.00 0.00 47 1005.6
20211018191521 58 21 4.0 14.0 0.00 0.00 0.00 48 1005.3
20211018191022 59 345 3.0 14.0 0.00 0.00 0.00 45 1005.3
20211018190524 59 346 1.0 11.0 0.00 0.00 0.00 47 1005.3
20211018190022 59 346 3.0 13.0 0.00 0.00 0.00 47 1005.3
20211018185454 59 350 3.0 18.0 0.00 0.00 0.00 43 1005.3
20211018184951 59 342 3.0 18.0 0.00 0.00 0.00 45 1005.3
20211018184452 59 273 1.0 15.0 0.00 0.00 0.00 45 1005.2
20211018183952 59 305 3.0 14.0 0.00 0.00 0.00 45 1005.2
20211018183435 59 323 4.0 14.0 0.00 0.00 0.00 46 1005.2
20211018182936 59 18 3.0 14.0 0.00 0.00 0.00 45 1005.3
20211018182435 59 341 3.0 11.0 0.00 0.00 0.00 46 1005.3
20211018181936 58 349 3.0 14.0 0.00 0.00 0.00 46 1005.3
20211018181433 58 328 4.0 19.0 0.00 0.00 0.00 47 1005.3
20211018180924 58 314 4.0 19.0 0.00 0.00 0.00 45 1005.3
20211018180425 58 8 3.0 13.0 0.00 0.00 0.00 47 1005.3
20211018175921 58 347 1.0 9.0 0.00 0.00 0.00 47 1005.5
20211018175408 58 324 1.0 8.0 0.00 0.00 0.00 48 1005.5
20211018174856 58 344 3.0 19.0 0.00 0.00 0.00 47 1005.5
20211018174344 58 307 4.0 19.0 0.00 0.00 0.00 47 1005.5
20211018173832 57 346 3.0 15.0 0.00 0.00 0.00 47 1005.5
20211018173319 57 314 4.0 15.0 0.00 0.00 0.00 48 1005.5
20211018172808 57 3 4.0 20.0 0.00 0.00 0.00 48 1005.7
20211018172255 57 306 4.0 20.0 0.00 0.00 0.00 48 1005.7
20211018171747 57 319 4.0 15.0 0.00 0.00 0.00 48 1005.7
20211018171243 57 333 5.0 15.0 0.00 0.00 0.00 48 1005.7
20211018170736 57 326 5.0 15.0 0.00 0.00 0.00 49 1005.7
20211018170225 57 288 6.0 16.0 0.00 0.00 0.00 50 1005.7
20211018165725 57 335 4.0 16.0 0.00 0.00 0.00 52 1005.7
20211018165213 56 298 3.0 13.0 0.00 0.00 0.00 50 1005.7
20211018164711 57 302 5.0 19.0 0.00 0.00 0.00 50 1005.7
20211018164206 56 357 5.0 19.0 0.00 0.00 0.00 50 1005.8
20211018163659 56 312 4.0 16.0 0.00 0.00 0.00 52 1005.8
20211018163155 56 331 4.0 16.0 0.00 0.00 0.00 51 1005.8
20211018162647 56 326 3.0 16.0 0.00 0.00 0.00 52 1006.1
20211018162141 56 248 3.0 15.0 0.00 0.00 0.00 53 1006.1
20211018161631 56 351 5.0 15.0 0.00 0.00 0.00 53 1006.1
20211018161124 56 312 4.0 14.0 0.00 0.00 0.00 53 1006.2
20211018160623 56 277 5.0 16.0 0.00 0.00 0.00 52 1006.2
20211018160117 56 338 4.0 16.0 0.00 0.00 0.00 52 1006.2
20211018155611 56 3 5.0 20.0 0.00 0.00 0.00 53 1006.2
20211018155101 56 249 5.0 22.0 0.00 0.00 0.00 51 1006.2
20211018154559 56 326 4.0 22.0 0.00 0.00 0.00 53 1006.2
20211018154053 56 326 3.0 11.0 0.00 0.00 0.00 55 1006.2
20211018153548 55 314 3.0 11.0 0.00 0.00 0.00 54 1006.2
20211018153042 55 346 4.0 11.0 0.00 0.00 0.00 54 1006.3
20211018152529 55 13 4.0 18.0 0.00 0.00 0.00 54 1006.3
20211018152026 55 3 4.0 18.0 0.00 0.00 0.00 53 1006.3
20211018151524 55 302 4.0 22.0 0.00 0.00 0.00 56 1006.4
20211018151017 55 35 4.0 22.0 0.00 0.00 0.00 56 1006.4
20211018150511 55 37 3.0 14.0 0.00 0.00 0.00 57 1006.4
20211018150005 55 352 1.0 10.0 0.00 0.00 0.00 57 1006.5
20211018145459 55 72 1.0 11.0 0.00 0.00 0.00 59 1006.5
20211018144950 54 354 3.0 15.0 0.00 0.00 0.00 59 1006.4
20211018144449 54 359 4.0 15.0 0.00 0.00 0.00 59 1006.6
20211018143941 54 341 3.0 15.0 0.00 0.00 0.00 61 1006.6
20211018143438 54 289 1.0 13.0 0.00 0.00 0.00 59 1006.6
20211018142929 54 319 3.0 14.0 0.00 0.00 0.00 61 1006.5
20211018142418 53 344 3.0 14.0 0.00 0.00 0.00 61 1006.5
20211018141917 53 325 3.0 15.0 0.00 0.00 0.00 61 1006.5
20211018141412 52 325 3.0 15.0 0.00 0.00 0.00 63 1006.6
20211018140904 52 235 1.0 11.0 0.00 0.00 0.00 65 1006.6
20211018140359 51 3 3.0 14.0 0.00 0.00 0.00 66 1006.6
20211018135849 51 348 3.0 15.0 0.00 0.00 0.00 67 1006.6
20211018135346 51 322 3.0 15.0 0.00 0.00 0.00 68 1006.6
20211018134847 51 322 3.0 15.0 0.00 0.00 0.00 68 1006.6
20211018134327 51 351 3.0 13.0 0.00 0.00 0.00 69 1006.7
20211018133808 50 344 1.0 11.0 0.00 0.00 0.00 71 1006.7
20211018133258 50 358 3.0 13.0 0.00 0.00 0.00 72 1006.7
20211018132758 50 354 3.0 13.0 0.00 0.00 0.00 72 1006.9
20211018132230 49 335 1.0 8.0 0.00 0.00 0.00 73 1006.9
20211018131719 49 336 1.0 11.0 0.00 0.00 0.00 74 1006.9
20211018131201 49 336 3.0 13.0 0.00 0.00 0.00 75 1006.9
20211018130656 49 356 3.0 13.0 0.00 0.00 0.00 75 1006.9
20211018130147 49 326 1.0 13.0 0.00 0.00 0.00 76 1006.9
20211018125652 49 3 1.0 10.0 0.00 0.00 0.00 77 1006.7
20211018125118 48 357 0.0 10.0 0.00 0.00 0.00 78 1006.7
20211018124617 48 357 1.0 6.0 0.00 0.00 0.00 78 1006.7
20211018124111 48 353 1.0 6.0 0.00 0.00 0.00 78 1006.7
20211018123609 48 26 0.0 5.0 0.00 0.00 0.00 78 1006.7
20211018123112 48 34 0.0 0.0 0.00 0.00 0.00 79 1006.7
20211018122604 48 347 0.0 1.0 0.00 0.00 0.00 79 1006.7
20211018122103 48 347 1.0 8.0 0.00 0.00 0.00 79 1006.7
20211018121545 48 348 0.0 8.0 0.00 0.00 0.00 80 1006.7
20211018121047 48 349 0.0 6.0 0.00 0.00 0.00 80 1006.7
20211018120540 48 349 0.0 6.0 0.00 0.00 0.00 81 1006.7
20211018120040 48 72 0.0 3.0 0.00 0.00 0.00 81 1006.6
20211018115536 48 343 0.0 0.0 0.00 0.00 0.00 81 1006.6
20211018115003 48 343 0.0 3.0 0.00 0.00 0.00 81 1006.6
20211018114417 48 343 0.0 3.0 0.00 0.00 0.00 81 1006.5
20211018113919 49 343 0.0 4.0 0.00 0.00 0.00 81 1006.5
20211018113413 49 343 0.0 4.0 0.00 0.00 0.00 81 1006.5
20211018112910 49 341 0.0 1.0 0.00 0.00 0.00 82 1006.3
20211018112405 49 341 0.0 0.0 0.00 0.00 0.00 82 1006.3
20211018111904 49 341 0.0 0.0 0.00 0.00 0.00 82 1006.3
20211018111402 49 341 0.0 0.0 0.00 0.00 0.00 82 1006.1
20211018110848 49 341 0.0 0.0 0.00 0.00 0.00 82 1006.1
20211018110342 49 341 0.0 0.0 0.00 0.00 0.00 82 1006.1
20211018105822 50 341 0.0 0.0 0.00 0.00 0.00 82 1006.1
20211018105318 50 341 0.0 0.0 0.00 0.00 0.00 82 1006.1
20211018104756 50 341 0.0 3.0 0.00 0.00 0.00 82 1006.1
20211018104250 50 341 0.0 3.0 0.00 0.00 0.00 82 1006.1
20211018103743 50 341 0.0 3.0 0.00 0.00 0.00 82 1006.1
20211018103218 50 341 0.0 3.0 0.00 0.00 0.00 82 1006.1
20211018102708 50 341 0.0 0.0 0.00 0.00 0.00 82 1006.0
20211018102208 50 341 0.0 1.0 0.00 0.00 0.00 83 1006.0
20211018101657 50 341 0.0 1.0 0.00 0.00 0.00 83 1006.0
20211018101134 50 341 0.0 1.0 0.00 0.00 0.00 83 1005.8
20211018100607 50 341 0.0 1.0 0.00 0.00 0.00 83 1005.8
20211018100106 50 341 0.0 0.0 0.00 0.00 0.00 83 1005.6
20211018095550 50 341 0.0 0.0 0.00 0.00 0.00 83 1005.6
20211018095045 50 341 0.0 0.0 0.00 0.00 0.00 83 1005.6
20211018094528 50 341 0.0 3.0 0.00 0.00 0.00 83 1005.6
20211018094023 50 341 0.0 4.0 0.00 0.00 0.00 83 1005.6
20211018093515 50 341 0.0 4.0 0.00 0.00 0.00 83 1005.6
20211018093002 50 340 0.0 0.0 0.00 0.00 0.00 83 1005.7
20211018092442 50 340 0.0 0.0 0.00 0.00 0.00 83 1005.7
20211018091940 50 340 0.0 1.0 0.00 0.00 0.00 83 1005.7
20211018091417 50 340 0.0 1.0 0.00 0.00 0.00 83 1005.6
20211018090907 50 340 0.0 0.0 0.00 0.00 0.00 82 1005.6
20211018090355 50 340 0.0 1.0 0.00 0.00 0.00 82 1005.6
20211018085842 50 340 0.0 1.0 0.00 0.00 0.00 82 1005.6
20211018085329 51 340 0.0 0.0 0.00 0.00 0.00 82 1005.6
20211018084819 51 340 0.0 0.0 0.00 0.00 0.00 82 1005.6
20211018084307 51 340 0.0 3.0 0.00 0.00 0.00 82 1005.6